User: anonymous   Login
Location: Caltech
(34.1382°N, 118.1253°W)
Time: 00:25:25
(UTC-08:00)
Language:

Iridium 70 - Orbit

View from above orbital plane
View from above orbital plane
View from above satellite
View from above satellite

Ground track
Ground track

The orbit data is extracted from the following two-line orbital elements,

1 25342U 98032A   15025.57608942  .00000109  00000-0  31712-4 0  1363
2 25342 086.3946 229.3387 0001934 101.5437 310.7487 14.34215886873882
Epoch (UTC): 25 January 2015 13:49:34
Eccentricity: 0.0001934
inclination: 86.3946°
perigee height: 776 km
apogee height: 779 km
right ascension of ascending node: 229.3387°
argument of perigee: 101.5437°
revolutions per day: 14.34215886
mean anomaly at epoch: 310.7487°
orbit number at epoch: 87388

The dashed part of the orbit path shows where the satellite is in the earth's shadow,  

DLR